Regional Weather Roundup
Issued by NWS State College, PA

Home | Current Version | Previous Version | Graphics & Text | Print | Product List | Glossary On
Versions: 1 2 3 4 5 6 7 8 9 10 11 12 13 14 15 16 17 18 19 20 21 22 23 24 25 26 27 28 29 30 31 32 33 34 35 36 37 38 39 40 41 42 43 44 45 46 47 48 49 50
000
ASUS41 KCTP 241810
RWRCTP

REGIONAL WEATHER ROUNDUP
NATIONAL WEATHER SERVICE STATE COLLEGE PA
200 PM EDT MON JUL 24 2017

Note: "fair" indicates few or no clouds below 12,000 feet with no
significant weather and/or obstructions to visibility.

* = STATION THAT DOES NOT REPORT PRECIPITATION /E.G. RAIN...SNOW...ETC/
    THUNDER OR FOG.

PAZ002>004-007>009-013>016-020>023-029>032-241900-
WESTERN PENNSYLVANIA

CITY           SKY/WX    TMP DP  RH WIND       PRES   REMARKS
ERIE           CLOUDY    70  60  70 W12G22    29.86S
MEADVILLE      CLOUDY    69  60  73 W16G23    29.90S
FRANKLIN*      CLOUDY    70  59  68 NW10G18   29.90R
NEW CASTLE     MOCLDY    74  64  71 NW14G21   29.90R
BEAVER COUNTY  PTSUNNY   75  64  69 NW8G16    29.89R
BUTLER*        PTSUNNY   75  66  73 W9        29.87S
PITTSBURGH INT MOSUNNY   79  67  66 W12       29.87S
PITTSBURGH     PTSUNNY   78  65  63 W10G21    29.86F
INDIANA*       MOSUNNY   72  70  94 W9        29.90S FOG
LATROBE        PTSUNNY   75  70  83 SW9       29.88F
WASHINGTON CO* PTSUNNY   79  70  73 W6G16     29.88S
$$

PAZ004>006-010>012-017>019-024>028-033>037-041-042-045-046-049>053-241900-
CENTRAL PENNSYLVANIA

CITY           SKY/WX    TMP DP  RH WIND       PRES   REMARKS
BRADFORD       MOSUNNY   75  60  59 W14G25    29.85S
DUBOIS         PTSUNNY   73  66  78 W9        29.85S
CLEARFIELD     PTSUNNY   78  65  63 SW14G24   29.84S
JOHNSTOWN      CLOUDY    73  65  75 W10       29.90F
ALTOONA        MOSUNNY   81  68  64 W9        29.87F
STATE COLLEGE  PTSUNNY   81  66  61 SW12      29.82F
WILLIAMSPORT   MOSUNNY   81  68  64 CALM      29.76F
SELINSGROVE    MOSUNNY   80  70  71 VRB3      29.80F
FT INDIANTOWN  PTSUNNY   81  68  65 SW3       29.81F
CAPITAL CITY   PTSUNNY   84  65  52 N6        29.81F
HARRISBURG     MOSUNNY   83  67  58 W3        29.80F
YORK           PTSUNNY   82  69  64 SW3       29.82F
$$

PAZ038>040-043-044-047-048-054-055-060>062-067>071-241900-
EASTERN PENNSYLVANIA

CITY           SKY/WX    TMP DP  RH WIND       PRES   REMARKS
SCRANTON       PTSUNNY   79  66  64 CALM      29.81F
MOUNT POCONO   CLOUDY    69  65  86 SE8       29.87S
ALLENTOWN      PTSUNNY   80  65  59 N6        29.82S
QUAKERTOWN*    PTCLDY    79  66  65 NW3       29.84S
READING        MOSUNNY   84  70  62 W10       29.79F
LANCASTER      MOSUNNY   85  69  58 NW9       29.82S
COATESVILLE    PTCLDY    82  68  61 NW12      29.84S
POTTSTOWN      PTSUNNY   81  70  69 CALM      29.83S
BLUE BELL      MOSUNNY   77  68  73 CALM      29.83S
DOYLESTOWN     MOSUNNY   78  67  68 N6        29.83R
WILLOW GROVE   NOT AVBL
NORTH PHILA    PTSUNNY   81  68  64 N10       29.83R
PHILADELPHIA   MOSUNNY   84  66  54 NW10G20   29.81R
$$




USA.gov is the U.S. government's official web portal to all federal, state and local government web resources and services.